sat.trackr.live / text

‹ back to catalog

STARLINK-36728

NORAD 67927 · 2026-036Z

PAYLOAD ACTIVE UNKNOWN

§ Identity

Operator
Country
US
Launch date
2026-02-22
Launch site
AFETR
Launch vehicle
Mass (kg)
RCS (m²)

Purposes: comms

External: N2YO · Heavens-Above · Gunter

§ Orbital elements

Epoch: 2026-09-19T15:04:20.580672Z

Period
94.27 min
Inclination
42.9964°
Eccentricity
0.0000616
Mean motion
15.27582571 rev/d
Perigee alt
482.6 km
Apogee alt
483.5 km
Semi-major
6,861.2 km
B*
4.6484e-4
RAAN
229.8977°
Arg perigee
282.6791°
Mean anomaly
77.3992°
Rev number
3,338

§ Raw data

STARLINK-367281 67927U 26036Z   26262.62801598  .00012552  00000+0  46484-3 0  99982 67927  42.9964 229.8977 0000616 282.6791  77.3992 15.27582571 33386

JSON: /api/v1/satellites/67927 · /tle

For live sub-satellite position, see the globe view (requires WebGL).

§ Visibility from observer

Set your observer location to see the next 7 days of passes ≥ 10°. The values pass through the URL so the page stays shareable.

No JS? Fill the form by hand. The geolocation button needs JavaScript.